Regional Weather Roundup
Issued by NWS San Diego, CA

Home | Current Version | Previous Version | Text Only | Print | Product List | Glossary On
Versions: 1 2 3 4 5 6 7 8 9 10 11 12 13 14 15 16 17 18 19 20 21 22 23 24 25 26 27 28 29 30 31 32 33 34 35 36 37 38 39 40 41 42 43 44 45 46 47 48 49 50
000
ASUS46 KSGX 231210
RWRSGX

SAN DIEGO HOURLY WEATHER ROUNDUP
NATIONAL WEATHER SERVICE SAN DIEGO CA
500 AM PDT WED APR 23 2014

NOTE: "FAIR" INDICATES FEW OR NO CLOUDS BELOW 12,000 FEET WITH NO
SIGNIFICANT WEATHER AND/OR OBSTRUCTIONS TO VISIBILITY.

CAZ042-043-060-061-PZZ750-775-231300-

GREATER SAN DIEGO AREA

CITY           SKY/WX    TMP DP  RH WIND       PRES   REMARKS
LINDBERGH FLD  CLOUDY    60  49  66 SE3       29.95R
NATIONAL CITY    N/A     57  51  80 CALM      29.94S
CHULA VISTA      N/A     55  51  84 CALM      29.87S
IMPERIAL BEACH CLOUDY    56  50  80 E5        29.94R
BROWN FIELD    MOCLDY    51  45  79 SE5       29.93R
MIRAMAR MCAS   MOCLDY    54  48  80 E5        29.93R
MONTGOMERY FLD CLOUDY    56  49  77 E3        29.93R

$$

NORTH SAN DIEGO COUNTY

CITY           SKY/WX    TMP DP  RH WIND       PRES   REMARKS
CAMP PENDLETON PTCLDY    44  40  85 CALM      29.94R FOG
RED BEACH      FAIR      54  49  83 E6        29.92F
OCEANSIDE AP   CLOUDY    49  47  93 CALM      29.92F
VISTA            N/A     50  47  90 CALM      29.92R
CARLSBAD       MOCLDY    55  49  80 E3        29.92R
DEL MAR          N/A     55  51  86 CALM      29.94S
LA JOLLA SCRIP   N/A     56  52  87 E3        29.91R
FALLBROOK        N/A     53  53 100 CALM      29.94S
ESCONDIDO        N/A     53  49  86 CALM      29.95R
SAN MARCOS       N/A     53  49  84 CALM      29.92R
POWAY            N/A     49  46  88 CALM      29.95S
R. PENASQUITOS   N/A     54  50  87 CALM      29.94R

$$

EAST SAN DIEGO COUNTY

CITY           SKY/WX    TMP DP  RH WIND       PRES   REMARKS
RAMONA         CLEAR     41  40  96 W3        29.93R
GILLESPIE FLD  MOCLDY    52  46  82 W3        29.95S
LA MESA          N/A     55  50  85 CALM      29.87F
JAMUL            N/A     46  44  93 CALM      29.93R
DESCANSO N       N/A     44  40  87 CALM      29.80S
MT. LAGUNA OBS   N/A     40  36  84 W18       29.54  WCI  31
CAMPO            N/A     41  39  93 CALM      29.88F

$$

ORANGE COUNTY AND THE LOS ANGELES BASIN

CITY           SKY/WX    TMP DP  RH WIND       PRES   REMARKS
JOHN WAYNE AP  CLEAR     58  49  72 E3        29.92F
LAGUNA BEACH     N/A     53  49  86 N3        29.90F
LAKE FOREST FR   N/A     51  46  82 CALM      29.83F
SANTA ANA        N/A     54  50  87 CALM      29.88F
HUNTINGTON BCH   N/A     53  51  92 CALM      29.93F
LOS ALAMITOS   FAIR      55  50  84 E5        29.92F
FULLERTON      PTCLDY    57  49  74 E3        29.92S
LONG BEACH     CLOUDY    56  50  80 SE3       29.92F
L.A. AP        PTCLDY    57  50  77 VRB5      29.92F
L.A. DOWNTOWN  CLEAR     58  49  72 E3        29.92F

$$

THE INLAND EMPIRE

CITY           SKY/WX    TMP DP  RH WIND       PRES   REMARKS
CORONA         CLEAR     48  45  90 CALM      29.93F
CHINO          CLEAR     50  47  89 CALM      29.94S
ONTARIO        CLEAR     53  47  79 W5        29.92F
RIVERSIDE AP   CLEAR     52  48  86 S3        29.93S
RIV CYN CREST    N/A     53  53 100 S2        29.89F
MORENO VALLEY    N/A     48  48  97 CALM      28.04S
MARCH ARB      PTCLDY    47  44  90 S2        29.93S
HORSETHIEF CYN   N/A     50  44  79 S1        29.93F
PERRIS           N/A     50  49  97 S2          N/A
MENIFEE          N/A     51  49  96 CALM      30.00R
HEMET EAST       N/A     50  46  84 CALM      29.93R
FRENCH VALLEY  NOT AVBL
TEMECULA         N/A     52  50  93 E1        29.92R

$$

SAN BERNARDINO AND RIVERSIDE COUNTY MOUNTAINS

CITY           SKY/WX    TMP DP  RH WIND       PRES   REMARKS
BIG BEAR AP    CLEAR     36   9  32 W7        29.97S WCI  30
BIG BEAR SHEA    N/A     37   0  20 N3        29.88R
ANGELUS OAKS     N/A     39   9  29 MISG      29.78F
PINE COVE        N/A     42  11  28 N5        29.84S

$$

SOUTHERN DESERT INCLUDING THE COACHELLA VALLEY

CITY           SKY/WX    TMP DP  RH WIND       PRES   REMARKS
PALM SPRINGS   CLEAR     64  44  48 NW9       29.79R
THOUSAND PALMS   N/A     63  47  55 N28       29.75R
PALM DESERT      N/A     61  49  65 CALM      30.80S
THERMAL        CLEAR     65  45  48 NW15G24   29.75R
BLYTHE         PTCLDY    61  13  15 W6        29.77R
IMPERIAL AP    CLEAR     63  39  41 W9        29.76S
EL CENTRO NAS  CLEAR     66  37  34 W16       29.76S
YUMA AZ        CLEAR     65  35  33 N5        29.77S

$$

UPPER DESERT

CITY           SKY/WX    TMP DP  RH WIND       PRES   REMARKS
VICTORVILLE AP   N/A     46  27  46 W10       29.94R
HESPERIA         N/A     45  27  49 CALM      30.02R
APPLE VALLEY     N/A     48  25  40 W5G17     30.03F
GRAY BUTTE AP  NOT AVBL
PALMDALE       CLEAR     49  26  41 W18       29.95S
LANCASTER      CLEAR     46  30  53 W23G33    29.94S
EDWARDS AFB    CLEAR     47  27  44 SW15      29.91R
DAGGETT        CLEAR     54  20  26 W13       29.91S
29 PALMS N     CLEAR     55  20  25 NW13      29.95R
NEEDLES        PTCLDY    67  13  12 N12       29.77R

$$

REGIONAL REPORTS

CITY           SKY/WX    TMP DP  RH WIND       PRES   REMARKS
SANTA BARBARA  CLEAR     60  31  33 N16G23    29.93S
SANDBERG       PTCLDY    37  28  70 N31       29.97F WCI  24
MT. WILSON       N/A     43  10  26 NW6G13      N/A
LAS VEGAS NV   MOCLDY    63   9  12 NW12G21   29.81R
PHOENIX AZ     PTCLDY    73  24  16 W8        29.74R
TIJUANA        CLOUDY    55  45  67 E5        29.95S
ENSENADA NW      N/A     55  32  42 CALM      29.91F

$$

OFFSHORE ISLANDS

CITY           SKY/WX    TMP DP  RH WIND       PRES   REMARKS
CATALINA ARPT  CLEAR     53  45  74 NW7       29.94S
SAN NICOLAS IS CLEAR    N/A N/A N/A NW28G33   29.93F

$$

MARINE AND OFFSHORE BUOY REPORTS

STATION/POSITION SKY/WX   TEMP    WIND        PRES    SWELL
                          AIR SEA DIR/SP/G            HT/PER/DIR
                          (F)     (DEG/KT/KT) (MB)    (FT/S/D)
S CLEMENTE BASIN           59 62  320/ 12/ 16 1013.2S   8/300/ 9
SAN NICOLAS IS.               57                N/A     7/300/11
SO. S. ROSA ISLA           54 56  310/ 27/ 35 1014.1F   8/ 9
W. S. BARBARA CH           53 53  330/ 25/ 29 1015.1F   8/300/12
S. MONICA BASIN            59 60  310/ 12/ 14 1012.7F   5/270/ 8
S PEDRO CHANNEL               61                N/A     2/260/13
DANA POINT                    62                N/A     3/270/13
CMP PENDLETON NS              63                N/A     2/240/13
OCEANSIDE OFFSHR              63                N/A     2/250/13
TORREY PINES OTR              62                N/A     3/270/11
LA JOLLA 1                 58 60  120/  5/  6 1013.4F
MISSION BAY BUOY              62                N/A     5/280/13
SAN DIEGO BAY                 66              1013.6S
POINT LOMA SOUTH              64                N/A     3/280/11

$$




USA.gov is the U.S. government's official web portal to all federal, state and local government web resources and services.